RH
48 51 57 63 67 65 62 61 61 61 61 62 65 65 64 64 65 70 79 86 88 88 84 81 81 81 79 80 83 86 88 88 87 84 84 85 84 82 80 77 73 65
52 54 58 61 60 58 58 63 67 70 71 69 69 68 66 64 64 66 72 79 84 88 86 83 82 82 82 81 82 85 88 88 87 85 83 81 79 77 75 74 73 70
57 57 58 58 56 58 64 71 73 74 74 71 66 64 64 66 68 70 73 76 79 81 83 85 85 82 83 84 84 86 88 89 88 86 85 83 80 78 74 72 71 69
55 54 55 57 59 64 72 77 79 78 77 74 67 62 64 67 69 70 71 72 76 78 77 80 83 83 84 86 88 89 89 91 90 88 88 87 83 82 80 77 75 72
53 52 52 55 60 69 77 80 84 81 75 72 67 63 63 66 66 65 65 65 71 79 80 77 75 76 79 84 88 90 91 93 94 94 95 92 87 85 83 81 79 76
60 58 55 55 60 71 81 82 82 82 77 73 72 68 63 62 64 64 65 66 68 74 80 81 80 76 76 81 85 88 90 93 95 97 98 96 91 89 87 85 82 78
66 61 57 59 61 67 74 74 73 78 81 77 76 76 69 65 67 66 66 69 70 73 76 78 81 80 78 81 85 86 87 90 92 94 95 94 93 91 89 88 85 82
62 60 61 63 62 65 71 72 73 79 83 81 77 76 75 75 76 73 72 74 74 74 73 73 78 81 79 80 82 84 85 87 88 90 90 89 89 88 85 84 83 81
54 61 68 67 65 70 77 78 78 79 82 82 78 70 68 72 74 73 74 78 77 72 67 67 73 79 82 84 83 83 83 83 85 86 87 86 85 84 81 79 76 74
51 61 66 65 65 68 72 73 72 71 71 72 69 62 59 62 65 66 68 72 76 75 72 72 74 77 81 85 88 88 84 81 81 81 82 84 84 84 81 78 74 71
50 56 60 63 65 64 63 62 60 60 59 58 56 53 52 55 60 65 68 72 75 75 73 72 73 73 73 74 81 88 87 82 80 80 80 81 82 83 83 80 77 73
48 54 60 65 67 66 64 62 59 57 54 52 51 50 49 49 50 54 57 63 70 73 71 69 70 74 75 74 75 81 86 85 82 80 80 79 79 80 82 82 81 77
51 57 59 59 59 62 67 68 66 64 59 55 53 51 51 50 49 48 48 53 64 71 71 72 74 77 80 81 80 81 87 91 90 88 85 81 79 79 79 80 80 80
56 56 51 50 52 57 66 70 70 70 70 68 65 63 64 63 60 56 51 56 67 73 72 71 74 77 79 81 82 80 81 83 86 90 91 88 83 79 79 80 81 81
52 50 45 46 53 59 65 69 69 71 73 75 75 74 75 77 76 69 61 64 75 78 75 72 73 75 77 78 79 80 80 80 81 84 88 91 90 85 82 82 83 84
44 44 43 48 58 65 67 69 70 71 72 74 75 76 78 82 85 81 73 76 84 85 82 79 76 75 76 75 76 81 88 91 91 90 90 91 92 90 88 87 86 87
42 42 46 55 63 65 66 69 72 73 74 74 75 77 80 84 89 89 85 86 91 90 88 87 83 80 79 78 80 85 90 94 97 98 95 91 90 91 92 91 89 89
51 52 57 62 65 66 69 72 74 75 76 77 80 82 84 86 89 92 91 91 93 92 91 92 90 86 84 82 84 89 91 92 95 97 96 94 93 93 92 91 90 91
59 61 64 65 67 70 73 75 76 78 80 83 87 87 88 90 91 92 93 93 95 95 94 94 93 90 87 85 86 89 89 92 95 96 97 98 97 96 95 94 93 93
61 64 66 69 71 74 77 78 79 81 84 87 90 90 91 93 94 93 94 94 95 96 95 95 94 91 88 87 87 89 90 92 92 92 96 99 99 99 98 98 98 97
65 67 69 73 76 78 80 82 82 85 88 90 92 93 93 95 97 97 97 95 91 87 87 88 85 83 85 86 87 88 89 90 89 91 95 98 100 100 99 98 99 99
68 71 74 77 80 82 85 86 86 88 91 93 95 96 94 95 97 96 94 89 82 76 76 76 73 74 80 86 89 89 88 89 91 94 98 100 100 100 98 97 99 100
73 76 79 82 84 86 88 89 89 90 92 94 97 98 95 95 96 94 90 86 82 79 78 77 76 78 81 85 89 89 88 91 94 97 99 101 100 99 98 99 99 100
77 79 82 85 88 90 92 92 92 93 95 97 99 99 98 97 97 97 94 90 87 86 84 83 83 82 82 83 88 89 88 92 97 99 100 100 100 100 100 100 100 100
79 82 85 89 92 94 95 96 97 97 98 100 100 100 100 99 99 99 96 91 90 90 88 88 88 88 89 89 91 93 93 96 98 99 100 100 100 100 100 99 100 100
83 87 90 93 95 97 98 99 100 101 100 100 100 100 100 100 100 99 95 91 90 90 91 93 95 96 96 96 96 94 94 97 99 99 100 100 100 100 100 100 100 99
Wind_Speed
30 30 31 30 30 30 29 29 28 28 28 27 26 26 26 26 27 27 26 27 27 28 28 28 27 26 26 25 25 24 23 24 25 26 27 29 31 31 31 30 30 28
32 32 32 32 31 31 30 29 29 30 30 29 28 27 26 26 26 26 25 25 25 25 26 26 25 25 25 25 26 27 26 25 25 24 24 26 28 29 29 30 30 29
34 34 34 35 33 32 31 30 31 30 29 29 28 26 25 25 25 25 24 24 25 24 23 23 23 24 25 25 25 26 28 29 29 28 25 25 26 27 29 30 28 28
34 34 35 36 35 33 31 31 32 31 29 28 28 26 26 25 24 24 24 24 25 25 24 23 23 22 23 24 24 25 27 28 30 31 28 27 27 26 27 28 28 28
38 37 35 36 36 34 32 31 31 32 30 29 28 27 26 24 24 24 24 24 23 24 24 25 24 24 24 24 23 24 26 26 27 28 28 29 30 29 28 26 26 27
39 38 37 35 35 34 32 31 31 30 29 29 28 27 26 25 25 25 25 25 25 24 24 24 25 26 26 26 25 24 25 26 26 25 26 28 30 30 30 28 27 27
36 39 39 36 34 32 31 32 34 33 31 32 30 27 26 25 24 24 24 25 25 25 24 24 25 25 25 26 26 26 26 25 25 24 25 27 27 28 29 30 30 30
36 40 40 37 33 30 29 30 32 32 31 31 29 26 25 24 23 24 24 23 23 24 24 25 26 26 26 25 26 27 26 24 24 24 25 27 26 26 27 28 29 30
38 37 37 36 32 29 29 29 29 28 27 27 26 24 23 23 24 24 23 22 23 24 25 27 26 25 25 25 25 26 25 24 23 23 24 26 26 26 27 27 26 27
37 35 34 35 32 30 29 28 27 27 27 26 25 24 23 23 25 25 25 24 25 25 25 26 26 24 22 22 22 24 25 24 22 22 24 26 26 26 27 27 27 27
35 33 32 31 31 30 29 27 27 26 26 25 24 25 24 22 22 23 25 25 26 26 25 25 26 25 24 24 22 21 22 23 22 22 25 26 27 27 26 26 27 27
33 31 29 28 28 29 29 29 28 26 26 25 24 25 25 25 26 27 27 28 28 27 26 25 26 25 25 26 26 25 23 23 23 24 25 26 26 25 25 25 25 26
30 27 27 29 31 31 30 29 28 27 27 26 25 25 25 27 29 30 32 32 31 28 26 26 25 25 25 25 26 26 25 23 23 24 24 24 24 23 23 23 24 25
28 26 28 31 33 33 29 27 27 27 27 25 24 24 25 27 28 30 32 32 31 29 28 27 25 25 25 25 25 26 26 26 25 24 23 23 23 23 22 23 24 24
31 31 31 32 32 31 28 27 27 27 26 25 24 24 25 28 29 30 31 30 29 28 28 27 25 25 25 25 25 26 28 29 29 28 26 24 24 24 24 24 24 24
33 33 33 31 29 27 28 29 28 28 28 27 28 28 28 29 30 30 30 28 27 26 26 26 25 25 25 25 27 27 27 28 28 29 28 26 25 24 24 25 25 26
32 32 30 27 26 26 27 28 28 29 31 32 33 33 32 31 30 30 28 25 23 24 25 25 25 25 24 25 28 28 27 27 27 27 27 27 27 27 26 26 27 28
29 28 26 25 26 27 27 28 29 30 32 33 33 33 33 32 31 29 28 25 23 23 24 24 25 25 24 27 28 28 27 28 29 28 27 27 28 29 29 28 27 27
27 27 27 27 28 28 28 29 30 31 30 30 31 33 32 31 30 29 27 25 24 24 24 24 25 25 25 27 28 28 27 27 27 27 27 28 29 29 29 28 27 27
28 28 29 29 29 29 29 29 29 28 28 28 29 30 29 29 28 26 25 25 24 23 23 23 23 23 23 24 25 26 25 25 26 27 28 29 29 29 28 28 28 28
28 29 29 29 30 30 30 30 29 28 27 27 26 26 26 27 27 25 23 23 21 19 20 21 22 22 22 23 24 24 23 24 26 28 29 29 28 28 29 29 29 30
29 30 29 29 30 31 31 30 29 28 28 27 26 25 25 25 24 21 19 19 18 18 20 22 24 24 23 23 23 24 24 25 26 27 27 27 28 28 29 29 29 29
30 30 30 30 31 31 31 31 30 30 29 27 25 24 24 23 22 21 20 19 20 21 22 23 24 25 24 23 23 24 26 26 26 26 27 27 27 27 27 26 27 28
30 30 31 31 31 30 31 31 31 30 30 27 25 24 24 23 23 23 23 22 21 22 22 23 24 25 24 24 26 27 27 27 26 26 26 26 25 24 24 24 24 25
30 30 31 31 31 31 32 32 31 31 30 29 26 25 24 25 24 22 22 21 20 20 21 22 24 24 24 24 25 26 25 25 25 24 23 23 23 22 21 21 22 22
29 29 30 32 32 33 34 32 31 31 32 31 30 27 25 24 24 22 21 21 21 21 22 22 22 21 20 20 20 21 21 21 20 19 19 19 19 20 18 17 18 20
Wind_Direction
304 299 296 293 291 289 285 283 283 282 282 281 279 278 277 276 275 273 269 264 259 255 252 251 251 251 251 247 242 238 234 231 229 227 226 225 225 227 227 227 228 228
306 301 296 292 290 288 285 283 283 281 281 281 278 277 277 276 275 275 273 269 265 261 257 253 252 255 256 253 249 245 240 234 230 227 225 225 225 226 227 228 228 228
308 305 300 294 290 287 286 286 285 282 279 280 279 278 278 276 276 276 277 276 272 267 263 258 256 256 258 258 256 252 245 240 235 230 227 226 227 228 228 229 230 229
307 303 300 296 290 286 284 284 285 283 278 277 277 278 278 277 277 277 278 279 278 272 267 264 261 258 257 256 257 257 253 246 240 235 230 228 228 229 229 229 230 231
308 303 298 294 291 288 285 283 283 281 276 275 274 273 273 275 276 277 277 278 276 273 268 264 261 258 256 254 252 253 254 252 247 240 234 232 230 229 229 228 228 229
308 306 300 293 290 291 288 287 287 282 277 276 275 272 269 268 269 270 271 273 273 274 271 266 261 257 252 248 244 244 248 249 248 243 237 235 234 233 232 230 228 228
310 311 306 295 288 289 289 288 289 285 278 277 277 274 268 263 263 264 264 265 268 271 272 270 265 259 252 245 239 237 240 244 245 241 234 233 233 232 231 230 228 228
313 312 309 300 289 286 288 290 291 287 278 273 271 271 271 269 265 262 261 262 263 266 270 272 269 261 253 245 237 233 233 236 241 241 236 233 231 229 228 226 225 225
314 308 308 307 300 293 291 291 292 291 285 277 271 270 272 270 264 261 262 262 260 261 263 267 268 264 256 246 236 232 231 231 234 238 239 237 233 232 229 226 225 224
312 307 307 309 307 303 296 291 288 286 285 283 280 277 274 268 263 261 261 258 255 254 255 258 261 263 264 258 246 236 230 229 231 235 240 241 239 237 233 229 227 226
310 306 305 306 308 309 305 301 295 289 285 282 281 282 282 279 274 270 266 260 252 250 252 255 257 259 261 264 262 253 239 232 234 238 241 242 241 240 238 234 231 228
307 304 307 311 312 312 310 309 306 302 299 294 290 288 286 285 282 279 275 267 256 250 249 250 252 252 252 254 257 259 253 243 238 240 242 241 238 239 239 239 236 234
303 306 316 319 315 313 311 310 309 307 304 301 297 295 291 287 283 279 275 267 256 249 246 245 247 248 247 246 248 252 254 252 245 239 239 239 236 236 237 239 241 240
310 316 321 317 312 309 308 309 310 308 305 301 298 296 294 292 286 279 275 264 252 246 243 240 241 243 245 246 247 249 251 254 254 250 246 241 236 236 238 240 242 242
315 317 316 311 307 306 308 311 311 310 307 303 300 297 295 294 288 283 278 264 249 244 242 239 239 239 242 244 246 248 247 246 247 247 247 244 239 235 234 236 239 240
311 310 307 305 306 309 313 313 312 312 312 310 307 302 298 295 291 286 280 264 248 243 242 241 241 241 241 244 245 245 243 240 238 237 237 238 238 235 232 234 238 241
305 302 301 305 311 315 315 312 311 312 312 310 306 301 296 293 290 287 282 268 253 249 247 243 242 243 246 248 247 243 241 239 238 234 232 234 235 235 235 237 239 239
305 304 308 315 316 315 313 311 310 309 307 304 300 298 295 291 288 287 284 275 263 256 252 247 245 247 249 249 247 244 242 241 238 234 232 232 232 232 234 236 236 235
318 320 320 319 316 314 312 311 309 305 302 301 299 297 294 289 286 284 280 275 266 258 254 251 248 247 246 246 247 246 246 245 242 239 235 234 234 233 233 233 232 230
322 322 319 316 314 314 312 310 307 303 301 301 299 296 291 286 283 279 275 271 265 260 257 255 251 248 248 249 251 251 249 247 246 245 242 239 237 235 234 233 230 227
319 318 315 313 313 313 312 308 304 301 300 300 297 293 288 284 279 275 271 269 265 259 258 257 257 256 255 254 254 253 250 248 246 245 244 243 242 241 240 239 233 228
317 315 313 313 313 312 309 307 304 302 301 299 296 293 291 288 285 282 276 271 267 261 258 259 262 262 259 255 253 252 252 250 248 248 247 246 246 245 244 244 237 230
316 314 312 313 312 310 308 306 305 303 302 300 297 295 296 295 294 295 291 281 275 270 265 262 263 264 262 258 255 255 256 253 251 251 249 248 247 245 242 240 236 230
314 313 313 312 310 308 307 306 304 302 300 299 295 291 293 293 291 291 289 283 276 273 270 266 264 267 266 263 261 261 260 257 253 251 248 247 245 240 237 236 233 229
314 312 311 310 308 306 305 304 302 301 298 296 293 289 289 289 288 287 286 282 278 276 275 272 270 272 272 269 268 269 269 266 261 254 246 240 234 229 231 233 230 225
312 309 308 308 306 305 304 302 299 298 299 298 295 291 290 288 286 284 283 282 283 283 282 279 278 280 282 282 281 281 281 279 272 259 242 227 221 219 217 215 215 216